CST,Max TemperatureF,Mean TemperatureF,Min TemperatureF,Max Dew PointF,MeanDew PointF,Min DewpointF,Max Humidity, Mean Humidity, Min Humidity, Max Sea Level PressureIn, Mean Sea Level PressureIn, Min Sea Level PressureIn, Max VisibilityMiles, Mean VisibilityMiles, Min VisibilityMiles, Max Wind SpeedMPH, Mean Wind SpeedMPH, Max Gust SpeedMPH,PrecipitationIn, CloudCover, Events, WindDirDegrees
2012-11-1,67,53,38,45,37,27,92,59,25,30.06,30.01,29.97,10,10,10,14,2,18,0.00,0,,307
2012-11-2,79,61,42,55,47,40,93,64,35,30.04,30.01,29.96,10,10,7,10,2,15,0.00,0,,267
2012-11-3,82,66,50,60,55,48,96,69,42,30.12,30.05,30.01,10,9,6,10,1,15,0.00,0,,281
2012-11-4,70,59,48,59,53,40,90,71,52,30.10,30.06,30.01,10,9,4,12,4,16,0.06,3,Rain,297
2012-11-5,65,53,40,49,42,34,89,62,34,30.10,30.02,29.94,10,8,2,9,1,13,0.47,4,Rain,278
2012-11-6,58,53,48,48,45,43,93,77,61,30.02,29.97,29.92,10,10,6,13,4,16,T,7,Rain,328
2012-11-7,59,51,42,45,40,36,93,70,47,30.13,30.01,29.94,10,10,6,15,6,23,0.00,3,,314
2012-11-8,61,50,38,41,39,37,100,71,42,30.25,30.20,30.13,10,7,2,9,3,12,0.00,1,,329
2012-11-9,70,53,36,45,39,33,92,60,28,30.33,30.25,30.21,10,8,5,3,0,6,0.00,0,,200
2012-11-10,72,56,40,48,41,37,93,61,29,30.36,30.28,30.23,10,9,6,10,2,15,0.00,0,,164
2012-11-11,74,60,45,51,46,38,76,60,44,30.35,30.26,30.17,10,10,10,17,5,25,0.00,0,,136
2012-11-12,63,53,42,59,52,36,97,82,67,30.38,30.25,30.16,10,7,1,16,7,23,0.64,6,Rain,315
2012-11-13,57,47,37,36,29,25,85,58,30,30.42,30.35,30.30,10,10,10,13,6,21,0.00,0,,357
2012-11-14,53,46,39,43,37,28,89,71,53,30.34,30.29,30.25,10,10,10,8,2,13,0.00,4,,60
2012-11-15,62,50,37,43,40,36,92,69,46,30.31,30.26,30.22,10,9,7,8,1,13,0.00,2,,10
2012-11-16,66,52,37,43,38,31,92,60,28,30.33,30.28,30.24,10,9,7,7,1,12,0.00,0,,29
2012-11-17,64,50,36,40,34,31,92,61,30,30.43,30.36,30.32,10,10,10,10,2,18,0.00,0,,70
2012-11-18,64,50,36,43,37,31,89,64,39,30.40,30.34,30.29,10,10,10,9,2,15,0.00,0,,70
2012-11-19,66,53,39,46,43,37,93,69,45,30.33,30.26,30.19,10,10,4,7,0,9,0.00,0,,70
2012-11-20,69,56,43,49,44,41,96,68,39,30.21,30.15,30.09,10,10,8,8,1,12,0.00,1,,317
2012-11-21,72,58,44,49,46,41,93,67,41,30.19,30.15,30.12,10,9,6,10,2,14,0.00,1,,326
2012-11-22,72,57,42,49,44,40,96,66,35,30.25,30.20,30.16,10,8,4,8,1,10,0.00,0,,200
2012-11-23,70,56,42,54,47,34,93,71,49,30.22,30.17,30.12,10,9,5,14,4,20,0.00,3,,313
2012-11-24,52,42,32,34,26,19,76,52,28,30.28,30.21,30.19,10,10,10,15,5,20,0.00,0,,333
2012-11-25,60,44,28,32,26,18,92,56,19,30.23,30.16,30.10,10,10,10,8,1,14,0.00,0,,208
2012-11-26,66,50,33,52,41,28,82,64,45,30.22,30.16,30.12,10,10,10,10,2,14,T,4,Rain,179
2012-11-27,60,52,44,56,50,39,93,83,72,30.30,30.17,30.09,10,7,2,15,6,20,0.22,8,Rain-Thunderstorm,327
2012-11-28,58,47,36,38,33,28,89,61,33,30.44,30.37,30.30,10,8,5,12,4,17,0.00,3,,351
2012-11-29,62,47,32,40,35,29,89,64,38,30.44,30.36,30.31,10,10,7,8,1,10,0.00,0,,140
2012-11-30,66,53,40,50,44,37,93,77,60,30.36,30.30,30.24,10,7,5,8,1,10,0.00,3,,180